Regional Weather Roundup
Issued by NWS

Home | Current Version | Previous Version | Text Only | Print | Product List | Glossary Off
Versions: 1 2 3 4 5 6 7 8 9 10 11 12 13 14 15 16 17 18 19 20 21 22 23 24 25 26 27 28 29 30 31 32 33 34 35 36 37 38 39 40 41 42 43 44 45 46 47 48 49 50

000
ASUS43 KLMK 031610
RWRKY
KENTUCKY REGIONAL WEATHER ROUNDUP
NATIONAL WEATHER SERVICE LOUISVILLE KY
1200 PM EDT THU SEP 03 2015

NOTE "FAIR" INDICATES FEW OR NO CLOUDS BELOW 12,000 FEET
WITH NO SIGNIFICANT WEATHER AND/OR OBSTRUCTIONS TO VISIBILITY.

KYZ001>023-026-027-061>063-070>075-031700-
WESTERN AND SOUTH CENTRAL KENTUCKY

CITY           SKY/WX    TMP DP  RH WIND       PRES   REMARKS
PADUCAH        SUNNY     88  68  51 CALM      30.03F HX  91
HENDERSON      SUNNY     90  68  48 SW5       30.02S HX  93
OWENSBORO      SUNNY     90  70  51 CALM      30.04F HX  95
HOPKINSVILLE   SUNNY     87  68  52 VRB3      30.03F HX  91
BOWLING GREEN  SUNNY     88  66  48 CALM      30.04F HX  90
GLASGOW        SUNNY     87  65  47 E3        30.04F
$$

KYZ024-025-028>034-038-045-046-053-031700-
NORTH CENTRAL KENTUCKY

CITY           SKY/WX    TMP DP  RH WIND       PRES   REMARKS
LOUISVILLE/SDF MOSUNNY   88  67  49 N5        30.02F HX  91
LOUISVILLE/LOU SUNNY     88  68  51 W3        30.04F HX  91
FORT KNOX      SUNNY     85  67  54 VRB1      30.03S
$$

KYZ035>037-039>044-047>052-055>060-089>105-031700-
NORTHEAST KENTUCKY

CITY           SKY/WX    TMP DP  RH WIND       PRES   REMARKS
LEXINGTON      MOSUNNY   88  68  51 NW7       30.06F HX  91
COVINGTON      MOSUNNY   86  68  54 W6        30.04F
FRANKFORT      MOSUNNY   86  66  51 VRB3      30.04F
$$

KYZ054-064>069-076>088-106>120-031700-
SOUTHEAST KENTUCKY

CITY           SKY/WX    TMP DP  RH WIND       PRES   REMARKS
JACKSON        MOSUNNY   82  68  62 CALM      30.08F
LONDON         SUNNY     86  65  49 N8        30.08S
SOMERSET       SUNNY     82  66  57 CALM      30.08S
MIDDLESBORO    SUNNY     82  70  66 E5        30.08F
MONTICELLO     SUNNY     87  69  54 CALM      30.09F HX  91
$$




USA.gov is the U.S. government's official web portal to all federal, state and local government web resources and services.